This is the latest recevied weather packets stored in our database for station/object WX5RP. If no packets are shown the sender has not sent any weather packets the latest 1 day(s).
| Time | Temp. | Humidity | Pressure | Rain* | Wind** | Luminosity | Snow |
|---|---|---|---|---|---|---|---|
| 1778044516 | 12.78° C | 51% | 1016.8 hPa | 0 mm | - | 0 W/m² | - |
| 1778043916 | 11.67° C | 57% | 1016.2 hPa | 0 mm | - | 0 W/m² | - |
| 1778043316 | 12.78° C | 54% | 1016.1 hPa | 0 mm | - | 0 W/m² | - |
| 1778042716 | 12.78° C | 52% | 1016.1 hPa | 0 mm | - | 0 W/m² | - |
| 1778042119 | 12.22° C | 52% | 1015.7 hPa | 0 mm | - | 0 W/m² | - |
| 1778041516 | 12.78° C | 52% | 1015.1 hPa | 0 mm | - | 0 W/m² | - |
| 1778040916 | 12.78° C | 51% | 1015.1 hPa | 0 mm | - | 0 W/m² | - |
| 1778040316 | 13.89° C | 50% | 1015.8 hPa | 0 mm | - | 0 W/m² | - |
| 1778038515 | 15.56° C | 44% | 1014.6 hPa | 0 mm | - | 0 W/m² | - |
| 1778037915 | 17.22° C | 42% | 1013.9 hPa | 0 mm | - | 0 W/m² | - |
| 1778037316 | 17.78° C | 39% | 1013.9 hPa | 0 mm | - | 0 W/m² | - |
| 1778036115 | 18.33° C | 39% | 1014.3 hPa | 0 mm | - | 12 W/m² | - |
| 1778035515 | 18.89° C | 36% | 1014.3 hPa | 0 mm | - | 16 W/m² | - |
| 1778034915 | 19.44° C | 37% | 1013.5 hPa | 0 mm | - | 22 W/m² | - |
| 1778034315 | 20° C | 35% | 1013.3 hPa | 0 mm | - | 29 W/m² | - |
| 1778033715 | 20.56° C | 36% | 1013.1 hPa | 0 mm | - | 50 W/m² | - |
| 1778031316 | 21.11° C | 35% | 1013.4 hPa | 0 mm | - | 72 W/m² | - |
| 1778030716 | 21.67° C | 34% | 1012.9 hPa | 0 mm | - | 110 W/m² | - |
| 1778030116 | 21.67° C | 32% | 1012.9 hPa | 0 mm | - | 107 W/m² | - |
| 1778029516 | 21.11° C | 34% | 1013.6 hPa | 0 mm | - | 145 W/m² | - |
| 1778028916 | 21.67° C | 34% | 1013.5 hPa | 0 mm | - | 133 W/m² | - |
| 1778028316 | 22.22° C | 33% | 1013.5 hPa | 0 mm | - | 349 W/m² | - |
| 1778027716 | 21.11° C | 38% | 1013.5 hPa | 0 mm | - | 192 W/m² | - |
* Rain latest hour (hover to see other rain measurements)
** Current wind speed in m/s (hover to see current wind gust speed)